Location: Julian California
(33.0790°N, 116.6010°W)
Time: 10:34:50
(UTC-07:00)

Cosmos 2082 Rocket - Pass Details

Date: 19 May 2017
Orbit: 832 x 855 km, 71.0° (Epoch: 24 September)

Event Time Altitude Azimuth Distance (km) Brightness Sun altitude
Exits shadow 23:46:13 37° 10° (N) 1,288 3.4 -35.2°
Drops below altitude 10° 23:49:33 10° 17° (NNE) 2,463 5.2 -35.4°
Sets 23:52:00 0° 19° (NNE) 3,397 6.0 -35.5°
